Home > Weather > Słupsk > Past weeks

Flag for Poland Past Weather in Słupsk, Poland — Yesterday and Last 2 Weeks

Now
65 °F

Overcast.


Feels Like: 65 °F
Forecast: 59 / 76 °F
Wind: 5 mph from Northeast

Location: Leba

Current Time: Jul 23, 2016 at 9:29:23 PM

Latest Report: Jul 23, 2016 at 8:00 PM


Visibility: 13 mi

Pressure: 30.13 "Hg

Humidity: 86%

Dew Point: 61 °F

Location of SłupskLocation

Past Weather in Słupsk — Graph

°F

Słupsk Temperature Yesterday

Maximum temperature yesterday: 69 °F (at 4:00 PM)
Minimum temperature yesterday: 50 °F (at 5:00 AM)
Average temperature yesterday: 63 °F

High & Low Weather Summary for the Past Weeks

 TemperatureHumidityPressure
High79 °F (Jul 11, 1:00 PM)97% (Jul 15, 2:00 AM)30.17 "Hg (Jul 15, 2:00 AM)
Low50 °F (Jul 21, 3:00 AM)55% (Jul 16, 6:00 PM)29.68 "Hg (Jul 14, 11:00 PM)
Average63 °F82%29.97 "Hg
* Reported Jul 8 8:00 PM — Jul 23 8:00 PM, Słupsk, Weather by CustomWeather, © 2016

Note: Actual official high and low records may vary slightly from our data, if they occured in-between our weather recording intervals... More about our weather records

Advertising

Słupsk Weather History for the Previous 24 Hours

Scroll right to see more
 ConditionsComfort  
Time TempWeatherWind HumidityBarometerVisibility
8:00 PM
Sat, Jul 23
65 °FOvercast.5 mph86%30.13 "Hg12 mi
7:00 PM66 °FOvercast.3 mph83%30.14 "Hg12 mi
6:00 PM67 °FOvercast.3 mph82%30.14 "Hg12 mi
5:00 PM67 °FOvercast.3 mph80%30.15 "Hg12 mi
4:00 PM68 °FOvercast.3 mph77%30.16 "Hg12 mi
3:00 PM68 °FOvercast.2 mph77%30.16 "Hg12 mi
2:00 PM68 °FOvercast.2 mph76%30.15 "Hg12 mi
1:00 PM69 °FPartly sunny.3 mph78%30.14 "Hg12 mi
12:00 PM69 °FOvercast.3 mph79%30.14 "Hg12 mi
11:00 AM69 °FOvercast.2 mph81%30.14 "Hg12 mi
10:00 AM67 °FOvercast.3 mph85%30.14 "Hg12 mi
9:00 AM67 °FOvercast.2 mph85%30.13 "Hg12 mi
8:00 AM66 °FOvercast.1 mph88%30.12 "Hg12 mi
7:00 AM66 °FOvercast.1 mph89%30.11 "Hg12 mi
6:00 AM65 °FOvercast.1 mph90%30.11 "Hg12 mi
5:00 AM65 °FOvercast.2 mph89%30.11 "Hg12 mi
4:00 AMN/APassing clouds.28 mphN/AN/A2 mi
3:00 AM65 °FOvercast.2 mph86%30.11 "Hg12 mi
2:00 AM65 °FOvercast.2 mph87%30.11 "Hg12 mi
1:00 AMN/APassing clouds.24 mphN/AN/A11 mi
12:00 AM64 °FOvercast.2 mph91%30.10 "Hg12 mi
11:00 PM
Fri, Jul 22
63 °FPassing clouds.2 mph91%30.11 "Hg12 mi
10:00 PM65 °FOvercast.2 mph85%30.11 "Hg12 mi
9:00 PM65 °FOvercast.2 mph85%30.10 "Hg12 mi
Weather by CustomWeather, © 2016

See weather overviewHow to use our weather pages